Location: Haliburton Scout Reserve
(45.0900°N, 78.3200°W)
Time: 02:27:09
(UTC-04:00)

TIGRISAT - Visible Passes

Search period start: 20 September 2024 00:00
Search period end: 30 September 2024 00:00
Orbit: 591 x 667 km, 97.7° (Epoch: 19 September)

Date Brightness Start Highest point End Pass type
(mag) Time Alt. Az. Time Alt. Az. Time Alt. Az.
20 Sep ? 03:30:52 10° E 03:33:03 14° ENE 03:35:15 10° NNE visible
20 Sep ? 05:06:21 24° S 05:08:49 65° WSW 05:13:07 10° NNW visible
21 Sep ? 03:49:47 10° ESE 03:52:59 21° ENE 03:56:13 10° NNE visible
21 Sep ? 05:26:59 24° SSW 05:29:03 39° W 05:33:06 10° NNW visible
22 Sep ? 04:10:15 16° ESE 04:12:58 32° ENE 04:16:49 10° N visible
22 Sep ? 05:47:37 19° SW 05:49:19 24° W 05:52:52 10° NW visible
23 Sep ? 04:30:53 26° SE 04:32:59 52° ENE 04:37:13 10° N visible
23 Sep ? 06:08:16 13° WSW 06:09:40 15° W 06:12:14 10° NW visible
24 Sep ? 03:17:13 10° ENE 03:17:32 10° ENE 03:17:51 10° NE visible
24 Sep ? 04:51:30 39° SSE 04:53:04 86° ENE 04:57:27 10° NNW visible
25 Sep ? 03:34:49 10° E 03:37:22 16° ENE 03:39:58 10° NNE visible
25 Sep ? 05:12:07 43° SSW 05:13:13 58° W 05:17:31 10° NNW visible
26 Sep ? 03:55:22 18° ESE 03:57:17 24° ENE 04:00:46 10° NNE visible
26 Sep ? 05:32:44 33° WSW 05:33:25 35° W 05:37:26 10° NNW visible
27 Sep ? 04:15:59 30° ESE 04:17:14 36° ENE 04:21:16 10° N visible
27 Sep ? 05:53:21 22° W 05:53:40 22° W 05:57:06 10° NW visible
28 Sep ? 04:36:35 52° ESE 04:37:14 59° ENE 04:41:34 10° N visible
28 Sep ? 06:13:57 14° W 06:13:58 14° W 06:16:17 10° WNW visible
28 Sep ? 19:34:16 10° NW 19:35:33 11° WNW 19:36:50 10° WNW visible
29 Sep ? 03:20:14 10° ENE 03:21:42 12° ENE 03:23:10 10° NE visible
29 Sep ? 04:57:12 83° SW 04:57:18 85° WSW 05:01:44 10° NNW visible
